Miscellaneous Local Product
Issued by NWS Hastings, NE

Home | Current Version | Previous Version | Graphics & Text | Print | Product List | Glossary On
Versions: 1 2 3 4 5 6 7 8 9 10 11 12 13 14 15 16 17 18 19 20 21 22 23 24 25 26 27 28 29 30 31 32 33 34 35 36 37 38 39 40 41 42 43 44 45 46 47 48 49 50
000
AXUS43 KGID 312302
MISGRI

GID CWA HOURLY WEATHER ROUNDUP
NATIONAL WEATHER SERVICE HASTINGS NE
600 PM CDT MON AUG 31 2015

NOTE: "FAIR" INDICATES FEW OR NO CLOUDS BELOW 12,000 FEET WITH NO
SIGNIFICANT WEATHER AND/OR OBSTRUCTIONS TO VISIBILITY.

...SOUTH CENTRAL NEBRASKA...

CITY           SKY/WX    TMP DP  RH WIND       PRES   REMARKS
GRAND ISLAND   SUNNY     88  67  49 SE10      29.90S HX  91
HASTINGS       SUNNY     90  65  43 S10       29.89F HX  92
KEARNEY        SUNNY     90  64  43 S8        29.90S HX  91
ORD            SUNNY     89  64  43 S10       29.88R HX  90
YORK           SUNNY     86  68  54 S6        29.90F
AURORA         SUNNY     86  67  53 SE12      29.89F
LEXINGTON      SUNNY     90  65  43 SE13G18   29.89F HX  91
HOLDREGE       SUNNY     90  61  37 SE10      29.90S
HEBRON         SUNNY     89  62  40 SE12      29.89S

...NEBRASKA PANHANDLE...

CITY           SKY/WX    TMP DP  RH WIND       PRES   REMARKS
CHADRON        MOSUNNY   82  53  36 E6        29.94F
ALLIANCE       PTSUNNY   85  49  28 E8        29.99S
SCOTTSBLUFF    MOSUNNY   84  52  33 SE12      29.98S
SIDNEY         PTSUNNY   85  48  27 E13       30.02F

...WESTERN AND NORTH CENTRAL NEBRASKA...

CITY           SKY/WX    TMP DP  RH WIND       PRES   REMARKS
VALENTINE      PTSUNNY   76  60  57 N8        29.95R
AINSWORTH      PTSUNNY   81  63  55 NE6       29.94F
ONEILL         SUNNY     90  62  38 N5        29.89S HX  90
BROKEN BOW     MOSUNNY   90  64  42 SW5       29.90S HX  91
IMPERIAL       MOSUNNY   91  56  30 N9        29.92F
NORTH PLATTE   SUNNY     89  65  44 SE6       29.90S HX  91
MCCOOK         SUNNY     97  52  21 SE9       29.86F HX  94

...EASTERN NEBRASKA...

CITY           SKY/WX    TMP DP  RH WIND       PRES   REMARKS
NORFOLK        SUNNY     84  69  60 S10       29.90R
SO SIOUX CITY  SUNNY     83  69  62 S12       29.89S
TEKAMAH        SUNNY     83  70  64 S7        29.90R
COLUMBUS       SUNNY     84  68  58 SE5       29.89S
ALBION         SUNNY     84  68  58 S8        29.91R
OMAHA EPPLEY   MOSUNNY   85  66  53 S12       29.91S
OFFUTT AFB     MOSUNNY   84  68  57 SE9       29.90S
MILLARD        MOSUNNY   85  68  57 S9        29.90F
LINCOLN        SUNNY     87  70  56 S13       29.90S HX  92
NEBRASKA CITY  MOSUNNY   85  63  48 SE6       29.92S
BEATRICE       SUNNY     87  69  53 SE8       29.90S HX  91
FALLS CITY     SUNNY     89  69  51 S8        29.91S HX  93

...NORTHERN KANSAS...

CITY           SKY/WX    TMP DP  RH WIND       PRES   REMARKS
GOODLAND       SUNNY     95  44  17 E12G18    29.91F HX  91
HILL CITY      MOSUNNY   99  49  18 S13       29.86S HX  96
NORTON         CLEAR     93  45  18 E6        29.85F
PHILLIPSBURG   SUNNY    100  48  17 SE6       29.85S HX  97
SMITH CENTER   SUNNY     95  55  26 SE10      29.86F HX  93
HAYS           SUNNY     97  52  21 S17G25    29.87S HX  94
RUSSELL        SUNNY     97  50  20 S15G29    29.86S HX  94
CONCORDIA      SUNNY     90  63  40 SE12      29.88F HX  91
SALINA         SUNNY     92  63  38 S18       29.88F HX  93
TOPEKA         SUNNY     88  69  53 SE12      29.92S HX  92



USA.gov is the U.S. government's official web portal to all federal, state and local government web resources and services.